Location: Yamada Observatory
(36.7980°N, 119.2990°W)
Time: 18:21:53
(UTC-08:00)

Amateur Radio Satellites - All Passes

Search period start: 20 January 2018 17:51
Search period end: 21 January 2018 17:51
Location: Yamada Observatory, 36.7980°N, 119.2990°W

Satellite Date Start Highest point End Downlink Frequencies (MHz)
Time Altitude Azimuth
STRAND 1 20 Jan 18:04:28 18:04:48 10° 90° (E) 18:05:08 437.568
XW-2B 20 Jan 18:06:33 18:09:33 22° 264° (W) 18:12:33 145.730 - 145.750
ZACube-1 20 Jan 18:09:38 18:12:15 15° 66° (ENE) 18:14:52 437.345
XW-2A 20 Jan 18:14:28 18:16:32 15° 69° (ENE) 18:18:36 145.665 - 145.685
KKS-1 20 Jan 18:16:20 18:20:04 27° 291° (WNW) 18:23:48 437.445
AO-73 20 Jan 18:16:27 18:19:08 16° 66° (ENE) 18:21:52 145.935
HO-68 20 Jan 18:20:32 18:27:41 75° 256° (WSW) 18:34:51 435.675
BEESAT 2 20 Jan 18:30:49 18:33:39 18° 49° (NE) 18:36:28 435.950
STARS 20 Jan 18:32:29 18:36:42 45° 287° (WNW) 18:40:54 437.465
AAUSAT CUBESAT 2 20 Jan 18:34:26 18:38:17 39° 73° (ENE) 18:42:08 437.432
RS-15 20 Jan 18:46:19 18:56:40 41° 253° (WSW) 19:06:36 29.354- 29.394
Oscar 11 20 Jan 18:49:14 18:52:35 22° 69° (ENE) 18:55:56 .
SEEDS 20 Jan 18:51:59 18:56:03 47° 261° (W) 19:00:08 437.485
CUTE-I 20 Jan 19:01:36 19:03:57 13° 269° (W) 19:06:18 437.470
CUTE 1.7 + AOD 2 20 Jan 19:05:13 19:08:24 20° 266° (W) 19:11:36 437.475
PCSat 20 Jan 19:13:06 19:18:33 88° 244° (WSW) 19:23:57 145.827
CUBEBUG 2 20 Jan 19:14:49 19:18:28 26° 265° (W) 19:22:15 437.445
UWE-3 20 Jan 19:19:53 19:24:02 42° 262° (W) 19:28:21 435.000/436.395/437.385
BEESAT 3 20 Jan 19:20:28 19:23:49 28° 247° (WSW) 19:27:09 437.485
nSIGHT-1 20 Jan 19:21:45 19:24:28 27° 132° (SE) 19:27:12 .
ISS 20 Jan 19:34:19 19:37:00 24° 131° (SE) 19:39:43 437.550
STRAND 1 20 Jan 19:39:20 19:44:29 79° 284° (WNW) 19:49:37 437.568
ZACube-1 20 Jan 19:43:50 19:48:04 45° 262° (W) 19:52:25 437.345
XW-2A 20 Jan 19:46:09 19:48:59 24° 264° (W) 19:51:49 145.665 - 145.685
AO-73 20 Jan 19:50:44 19:54:56 43° 262° (W) 19:59:15 145.935
AO-85 20 Jan 19:51:59 19:56:03 25° 51° (NE) 20:00:19 145.980
Max Valier Satellite 20 Jan 19:56:21 19:57:50 12° 67° (ENE) 19:59:19 145.860
BEESAT 2 20 Jan 20:07:49 20:11:29 35° 246° (WSW) 20:15:04 435.950
AAUSAT CUBESAT 2 20 Jan 20:11:38 20:13:51 14° 267° (W) 20:16:05 437.432
EO-88 20 Jan 20:15:10 20:16:54 13° 68° (ENE) 20:18:37 145.990 - 145.960
FO-29 20 Jan 20:17:55 20:23:08 87° 282° (WNW) 20:28:26 435.910
UNISAT 6 20 Jan 20:23:58 20:25:04 11° 90° (E) 20:26:11 437.425
Oscar 11 20 Jan 20:24:46 20:28:31 28° 264° (W) 20:32:18 .
DELFI C3 20 Jan 20:47:10 20:51:04 90° 223° (SW) 20:54:59 145.870
nSIGHT-1 20 Jan 20:57:52 21:00:36 26° 328° (NNW) 21:03:19 .
ISS 20 Jan 21:10:29 21:13:24 29° 327° (NNW) 21:16:19 437.550
Max Valier Satellite 20 Jan 21:27:45 21:31:14 39° 261° (W) 21:34:46 145.860
AO-85 20 Jan 21:31:50 21:36:38 44° 245° (WSW) 21:41:39 145.980
LO-87 20 Jan 21:34:23 21:36:21 14° 68° (ENE) 21:38:19 145.935 - 145.965
TIGRISAT 20 Jan 21:42:09 21:46:52 77° 101° (E) 21:51:33 435.000
YUBILEINY 20 Jan 21:44:22 21:51:25 28° 83° (E) 21:58:27 435.215
EO-88 20 Jan 21:46:50 21:50:10 34° 262° (W) 21:53:32 145.990 - 145.960
UNISAT 6 20 Jan 21:57:29 22:02:10 66° 284° (WNW) 22:06:47 437.425
PRISM 20 Jan 22:10:32 22:14:11 32° 98° (E) 22:17:51 437.425
SPROUT 20 Jan 22:36:11 22:38:40 15° 67° (ENE) 22:41:10 437.525
ESTCUBE 1 20 Jan 22:37:20 22:41:51 77° 77° (ENE) 22:46:23 437.505/2401.250
AIST 2D 20 Jan 22:44:29 22:47:43 35° 98° (E) 22:50:54 435.315
QB50P2 20 Jan 22:51:23 22:53:44 14° 93° (E) 22:56:03 145.880/145.840
O/OREOS (USA 219) 20 Jan 22:57:46 22:59:20 12° 98° (E) 23:00:55 437.305
LO-87 20 Jan 23:06:20 23:09:26 28° 263° (W) 23:12:35 145.935 - 145.965
DUCHIFAT 1 20 Jan 23:20:18 23:23:30 20° 95° (E) 23:26:40 145.980
EO-79 20 Jan 23:21:07 23:24:51 28° 97° (E) 23:28:32 145.935-145.965
TIGRISAT 20 Jan 23:22:04 23:22:51 10° 297° (WNW) 23:23:38 435.000
NO-84 20 Jan 23:32:48 23:35:12 23° 40° (NE) 23:37:39 435.350 FM
YUBILEINY 20 Jan 23:38:57 23:47:35 57° 281° (W) 23:56:15 435.215
PRISM 20 Jan 23:46:28 23:49:11 18° 292° (WNW) 23:51:55 437.425
POLYITAN 1 20 Jan 23:55:41 00:00:00 75° 103° (ESE) 00:04:15 437.675
SPROUT 21 Jan 00:10:11 00:14:10 40° 261° (W) 00:18:12 437.525
NANOSAT C BR1 21 Jan 00:11:17 00:15:34 81° 282° (WNW) 00:19:48 145.865
VELOX 1 21 Jan 00:13:13 00:17:35 74° 258° (WSW) 00:21:58 145.980
AIST 2D 21 Jan 00:19:36 00:20:29 11° 293° (WNW) 00:21:21 435.315
UKube-1 21 Jan 00:19:38 00:21:44 13° 65° (ENE) 00:23:51 .
BUGSAT 1 21 Jan 00:21:21 00:24:41 22° 95° (E) 00:27:59 437.445
QB50P2 21 Jan 00:25:37 00:29:39 41° 287° (WNW) 00:33:40 145.880/145.840
DX 1 21 Jan 00:29:46 00:33:31 29° 70° (ENE) 00:37:17 434.975-435.025
O/OREOS (USA 219) 21 Jan 00:33:46 00:38:12 55° 293° (WNW) 00:42:37 437.305
50 SAT 21 Jan 00:37:34 00:40:08 24° 72° (ENE) 00:42:42 437.505
DUCHIFAT 1 21 Jan 00:55:26 00:59:07 29° 289° (WNW) 01:02:46 145.980
EO-79 21 Jan 00:57:09 01:00:24 21° 291° (WNW) 01:03:38 145.935-145.965
Gurwin Techsat 1B 21 Jan 01:03:47 01:08:26 30° 97° (E) 01:13:03 435.225
NO-84 21 Jan 01:10:01 01:12:14 19° 233° (SW) 01:14:32 435.350 FM
Oscar 19 21 Jan 01:16:50 01:21:54 55° 101° (E) 01:26:55 437.125/150
AO-91 21 Jan 01:23:24 01:27:58 81° 102° (ESE) 01:33:00 145.960
ITUPSAT 1 21 Jan 01:39:16 01:42:21 17° 65° (ENE) 01:45:27 437.325
nSIGHT-1 21 Jan 01:50:21 01:52:32 17° 28° (NNE) 01:54:42 .
UKube-1 21 Jan 01:53:09 01:57:18 48° 260° (W) 02:01:28 .
BUGSAT 1 21 Jan 01:56:22 01:59:57 27° 290° (WNW) 02:03:31 437.445
ISS 21 Jan 02:04:05 02:06:17 17° 27° (NNE) 02:08:29 437.550
DX 1 21 Jan 02:06:26 02:09:41 21° 265° (W) 02:12:56 434.975-435.025
MOZHAYETS 4 21 Jan 02:07:07 02:11:39 59° 74° (ENE) 02:16:13
50 SAT 21 Jan 02:10:53 02:11:51 11° 266° (W) 02:12:48 437.505
CUBESAT XI-V 21 Jan 02:12:31 02:15:23 16° 66° (ENE) 02:18:15 437.345
BEESAT 21 Jan 02:17:11 02:21:40 43° 72° (ENE) 02:26:11 436.000
AO-7 21 Jan 02:21:38 02:28:20 26° 96° (E) 02:34:57 .
ITAMSAT 1 21 Jan 02:26:53 02:27:41 10° 90° (E) 02:28:30 435.822/435.867
Gurwin Techsat 1B 21 Jan 02:43:41 02:48:16 30° 292° (WNW) 02:52:50 435.225
Oscar 19 21 Jan 02:57:31 03:00:43 17° 296° (WNW) 03:03:54 437.125/150
ITUPSAT 1 21 Jan 03:15:12 03:19:46 45° 260° (W) 03:24:22 437.325
FALCONSAT 3 21 Jan 03:17:27 03:20:34 26° 157° (SSE) 03:23:41 435.103
nSIGHT-1 21 Jan 03:25:48 03:28:55 56° 224° (SW) 03:32:02 .
KKS-1 21 Jan 03:36:21 03:39:17 18° 67° (ENE) 03:42:15 437.445
ISS 21 Jan 03:39:48 03:43:01 63° 224° (SW) 03:46:16 437.550
MOZHAYETS 4 21 Jan 03:47:28 03:49:08 12° 269° (W) 03:50:48
CUBESAT XI-V 21 Jan 03:47:49 03:52:20 47° 261° (W) 03:56:51 437.345
BEESAT 21 Jan 03:56:30 03:59:35 17° 266° (W) 04:02:41 436.000
DOVE 4 21 Jan 04:00:48 04:04:29 25° 96° (E) 04:08:19 437.250
ITAMSAT 1 21 Jan 04:02:27 04:07:40 79° 285° (WNW) 04:12:52 435.822/435.867
AO-7 21 Jan 04:13:16 04:21:30 63° 292° (WNW) 04:29:40 .
FALCONSAT 3 21 Jan 04:55:43 04:59:21 63° 172° (S) 05:03:00 435.103
SO-50 21 Jan 04:58:08 05:02:34 76° 117° (ESE) 05:07:04 436.795
KKS-1 21 Jan 05:11:26 05:15:31 37° 261° (W) 05:19:39 437.445
KAITUO 1B 21 Jan 05:12:24 05:13:42 12° 92° (E) 05:14:59 145.475/437.950
XW-2F 21 Jan 05:13:36 05:16:05 17° 94° (E) 05:18:32 145.980 - 146.000
STRAND 1 21 Jan 05:17:06 05:19:19 13° 62° (ENE) 05:21:32 437.568
NUDT-PHONESAT 21 Jan 05:22:06 05:24:12 15° 93° (E) 05:26:17 437.300
XW-2D 21 Jan 05:23:00 05:26:08 25° 96° (E) 05:29:17 145.860 - 145.880
STARS 21 Jan 05:26:08 05:30:27 70° 257° (WSW) 05:34:49 437.465
M-CUBED/EXP-1 PRIME 21 Jan 05:31:21 05:34:21 32° 292° (WNW) 05:37:16 437.505
CUTE-I 21 Jan 05:37:54 05:42:38 32° 97° (E) 05:47:22 437.470
DOVE 4 21 Jan 05:38:27 05:42:04 26° 289° (WNW) 05:45:51 437.250
XW-2B 21 Jan 05:40:17 05:43:50 40° 98° (E) 05:47:22 145.730 - 145.750
HO-68 21 Jan 05:51:45 05:57:21 24° 94° (E) 06:02:55 435.675
LilacSat-2 21 Jan 06:08:44 06:12:29 69° 283° (WNW) 06:16:12 437.200
AO-7 21 Jan 06:09:26 06:12:35 13° 312° (NW) 06:15:44 .
XW-2C 21 Jan 06:10:30 06:14:15 72° 283° (WNW) 06:17:57 145.795 - 145.815
FO-29 21 Jan 06:27:10 06:33:08 33° 69° (ENE) 06:38:33 435.910
FALCONSAT 3 21 Jan 06:34:41 06:38:20 65° 187° (S) 06:41:58 435.103
SEEDS 21 Jan 06:38:01 06:41:42 30° 97° (E) 06:45:23 437.485
SO-50 21 Jan 06:41:29 06:43:34 13° 317° (NW) 06:45:40 436.795
KAITUO 1B 21 Jan 06:44:23 06:47:47 36° 287° (WNW) 06:51:10 145.475/437.950
XW-2F 21 Jan 06:47:01 06:50:09 26° 288° (WNW) 06:53:14 145.980 - 146.000
CUTE 1.7 + AOD 2 21 Jan 06:50:55 06:55:08 81° 102° (ESE) 06:59:19 437.475
RS-15 21 Jan 06:52:33 07:03:48 44° 107° (ESE) 07:14:57 29.354- 29.394
STRAND 1 21 Jan 06:52:47 06:57:50 71° 258° (WSW) 07:02:57 437.568
NUDT-PHONESAT 21 Jan 06:54:52 06:58:03 28° 288° (WNW) 07:01:12 437.300
XW-2D 21 Jan 06:57:33 07:00:06 18° 291° (WNW) 07:02:38 145.860 - 145.880
CUBEBUG 2 21 Jan 07:06:39 07:11:26 76° 102° (ESE) 07:16:09 437.445
XW-2A 21 Jan 07:09:39 07:12:11 20° 96° (E) 07:14:41 145.665 - 145.685
UWE-3 21 Jan 07:11:23 07:15:53 46° 99° (E) 07:20:17 435.000/436.395/437.385
XW-2B 21 Jan 07:16:17 07:17:35 12° 293° (WNW) 07:18:53 145.730 - 145.750
CUTE-I 21 Jan 07:18:03 07:22:32 29° 292° (WNW) 07:27:03 437.470
ZACube-1 21 Jan 07:34:16 07:38:35 41° 98° (E) 07:42:47 437.345
HO-68 21 Jan 07:38:25 07:45:24 57° 290° (WNW) 07:52:21 435.675
AO-73 21 Jan 07:40:47 07:45:05 42° 98° (E) 07:49:17 145.935
AAUSAT CUBESAT 2 21 Jan 07:53:29 07:57:35 78° 283° (WNW) 08:01:39 437.432
YUBILEINY 21 Jan 08:00:46 08:01:55 10° 59° (ENE) 08:03:04 435.215
PCSat 21 Jan 08:11:24 08:14:39 16° 104° (ESE) 08:17:55 145.827
FO-29 21 Jan 08:11:40 08:18:05 38° 261° (W) 08:23:51 435.910
Oscar 11 21 Jan 08:13:28 08:17:45 60° 100° (E) 08:21:59 .
FALCONSAT 3 21 Jan 08:13:57 08:17:09 28° 202° (SSW) 08:20:19 435.103
SEEDS 21 Jan 08:14:15 08:17:08 19° 291° (WNW) 08:20:01 437.485
DELFI C3 21 Jan 08:27:39 08:29:29 13° 93° (E) 08:31:17 145.870
TIGRISAT 21 Jan 08:38:13 08:42:25 47° 74° (ENE) 08:46:47 435.000
XW-2A 21 Jan 08:42:26 08:44:42 17° 290° (WNW) 08:46:56 145.665 - 145.685
CUBEBUG 2 21 Jan 08:46:16 08:47:20 11° 297° (WNW) 08:48:23 437.445
UWE-3 21 Jan 08:49:01 08:51:53 16° 294° (WNW) 08:54:44 435.000/436.395/437.385
UNISAT 6 21 Jan 08:53:26 08:57:51 80° 75° (ENE) 09:02:22 437.425
PRISM 21 Jan 08:58:10 09:00:49 17° 68° (ENE) 09:03:29 437.425
Max Valier Satellite 21 Jan 09:00:07 09:02:54 20° 95° (E) 09:05:39 145.860
RS-15 21 Jan 09:03:58 09:15:59 56° 308° (NW) 09:27:55 29.354- 29.394
BEESAT 3 21 Jan 09:06:26 09:10:23 75° 119° (ESE) 09:14:22 437.485
O/OREOS (USA 219) 21 Jan 09:07:53 09:10:48 17° 58° (ENE) 09:13:43 437.305
ZACube-1 21 Jan 09:11:32 09:14:28 17° 293° (WNW) 09:17:22 437.345
EO-88 21 Jan 09:17:39 09:20:27 21° 96° (E) 09:23:14 145.990 - 145.960
AO-73 21 Jan 09:18:05 09:20:55 17° 293° (WNW) 09:23:43 145.935
YUBILEINY 21 Jan 09:51:54 10:00:34 65° 80° (E) 10:09:10 435.215
Oscar 11 21 Jan 09:52:10 09:53:19 11° 296° (WNW) 09:54:28 .
PCSat 21 Jan 09:52:11 09:57:30 59° 300° (WNW) 10:02:52 145.827
BEESAT 2 21 Jan 09:55:38 09:59:36 64° 117° (ESE) 10:03:36 435.950
DELFI C3 21 Jan 10:00:41 10:04:20 38° 286° (WNW) 10:07:58 145.870
DUCHIFAT 1 21 Jan 10:11:20 10:12:48 12° 65° (ENE) 10:14:19 145.980
EO-79 21 Jan 10:11:59 10:14:38 16° 67° (ENE) 10:17:16 145.935-145.965
TIGRISAT 21 Jan 10:17:13 10:19:23 13° 269° (W) 10:21:35 435.000
JUGNU 21 Jan 10:30:53 10:33:37 13° 174° (S) 10:36:20 437.505
PRISM 21 Jan 10:32:09 10:35:49 32° 262° (W) 10:39:28 437.425
ESTCUBE 1 21 Jan 10:32:59 10:36:10 19° 94° (E) 10:39:20 437.505/2401.250
Max Valier Satellite 21 Jan 10:33:44 10:36:36 21° 289° (WNW) 10:39:24 145.860
LO-87 21 Jan 10:35:03 10:38:00 23° 96° (E) 10:40:54 145.935 - 145.965
POLYITAN 1 21 Jan 10:45:37 10:49:33 39° 72° (ENE) 10:53:31 437.675
O/OREOS (USA 219) 21 Jan 10:46:11 10:50:23 42° 255° (WSW) 10:54:36 437.305
BEESAT 3 21 Jan 10:47:25 10:48:23 11° 315° (NW) 10:49:20 437.485
AIST 2D 21 Jan 10:48:37 10:51:59 42° 262° (W) 10:55:20 435.315
EO-88 21 Jan 10:51:16 10:53:56 20° 290° (WNW) 10:56:35 145.990 - 145.960
NANOSAT C BR1 21 Jan 11:00:31 11:04:35 51° 74° (ENE) 11:08:42 145.865
BUGSAT 1 21 Jan 11:10:31 11:11:53 11° 65° (ENE) 11:13:15 437.445
QB50P2 21 Jan 11:15:03 11:19:16 79° 256° (WSW) 11:23:32 145.880/145.840
RS-15 21 Jan 11:23:43 11:32:04 20° 337° (NNW) 11:40:18 29.354- 29.394
BEESAT 2 21 Jan 11:36:00 11:37:42 12° 314° (NW) 11:39:25 435.950
DUCHIFAT 1 21 Jan 11:43:51 11:47:57 54° 260° (W) 11:52:05 145.980
AO-85 21 Jan 11:44:07 11:48:01 67° 301° (WNW) 11:52:11 145.980
EO-79 21 Jan 11:46:08 11:50:02 37° 262° (W) 11:53:59 145.935-145.965
YUBILEINY 21 Jan 11:50:08 11:56:33 24° 278° (W) 12:02:57 435.215
SPROUT 21 Jan 11:57:42 12:01:42 37° 98° (E) 12:05:41 437.525
VELOX 1 21 Jan 12:05:51 12:09:25 24° 96° (E) 12:12:58 145.980
LO-87 21 Jan 12:08:39 12:11:12 18° 290° (WNW) 12:13:44 145.935 - 145.965
ESTCUBE 1 21 Jan 12:08:58 12:13:01 34° 289° (WNW) 12:17:03 437.505/2401.250
JUGNU 21 Jan 12:18:57 12:21:47 14° 185° (S) 12:24:36 437.505
AO-91 21 Jan 12:19:32 12:22:41 38° 74° (ENE) 12:25:55 145.960
Gurwin Techsat 1B 21 Jan 12:22:28 12:27:21 39° 70° (ENE) 12:32:15 435.225
POLYITAN 1 21 Jan 12:23:02 12:25:27 15° 267° (W) 12:27:53 437.675
Oscar 19 21 Jan 12:31:07 12:36:14 63° 74° (ENE) 12:41:23 437.125/150
NANOSAT C BR1 21 Jan 12:39:22 12:40:33 11° 269° (W) 12:41:45 145.865
SRMSAT 21 Jan 12:41:22 12:43:23 12° 169° (S) 12:45:24 437.500
BUGSAT 1 21 Jan 12:42:46 12:46:43 51° 260° (W) 12:50:45 437.445
AO-7 21 Jan 13:18:13 13:25:14 31° 60° (ENE) 13:32:16 .
50 SAT 21 Jan 13:25:19 13:27:58 25° 98° (E) 13:30:37 437.505
SO-50 21 Jan 13:31:27 13:35:49 36° 54° (NE) 13:40:13 436.795
SPROUT 21 Jan 13:34:30 13:37:14 17° 293° (WNW) 13:39:59 437.525
ITAMSAT 1 21 Jan 13:41:36 13:44:19 15° 63° (ENE) 13:47:03 435.822/435.867
VELOX 1 21 Jan 13:42:06 13:45:46 26° 291° (WNW) 13:49:26 145.980
UKube-1 21 Jan 13:42:23 13:46:11 30° 97° (E) 13:50:00 .
RS-15 21 Jan 13:44:12 13:51:23 17° 15° (NNE) 13:58:23 29.354- 29.394
DX 1 21 Jan 13:55:21 13:59:43 78° 103° (ESE) 14:04:03 434.975-435.025
Gurwin Techsat 1B 21 Jan 14:03:12 14:07:21 23° 265° (W) 14:11:32 435.225
MOZHAYETS 4 21 Jan 14:05:38 14:08:32 16° 93° (E) 14:11:23
Oscar 19 21 Jan 14:13:27 14:15:55 13° 268° (W) 14:18:25 437.125/150
BEESAT 21 Jan 14:21:17 14:23:27 13° 92° (E) 14:25:38 436.000
SRMSAT 21 Jan 14:28:28 14:31:43 15° 180° (S) 14:34:59 437.500
M-CUBED/EXP-1 PRIME 21 Jan 14:41:17 14:43:34 14° 63° (ENE) 14:45:46 437.505
50 SAT 21 Jan 14:58:17 14:59:23 11° 292° (WNW) 15:00:28 437.505
DOVE 4 21 Jan 15:04:57 15:07:55 19° 69° (ENE) 15:10:50 437.250
AO-7 21 Jan 15:09:22 15:17:31 57° 257° (WSW) 15:25:44 .
SO-50 21 Jan 15:12:20 15:16:04 23° 249° (WSW) 15:19:51 436.795
ITUPSAT 1 21 Jan 15:17:39 15:22:23 53° 101° (E) 15:27:04 437.325
ITAMSAT 1 21 Jan 15:18:05 15:23:12 64° 258° (WSW) 15:28:20 435.822/435.867
UKube-1 21 Jan 15:18:49 15:21:59 20° 292° (WNW) 15:25:09 .
MOZHAYETS 4 21 Jan 15:41:28 15:45:50 42° 288° (WNW) 15:50:09
CUBESAT XI-V 21 Jan 15:46:26 15:50:55 49° 99° (E) 15:55:21 437.345
BEESAT 21 Jan 15:56:50 16:01:32 57° 286° (WNW) 16:06:12 436.000
RS-15 21 Jan 15:57:14 16:08:17 44° 47° (NE) 16:18:45 29.354- 29.394
M-CUBED/EXP-1 PRIME 21 Jan 16:13:19 16:17:35 48° 255° (WSW) 16:21:36 437.505
SRMSAT 21 Jan 16:17:54 16:20:04 12° 190° (S) 16:22:15 437.500
XW-2B 21 Jan 16:20:06 16:22:21 15° 68° (ENE) 16:24:36 145.730 - 145.750
HO-68 21 Jan 16:20:26 16:24:06 15° 56° (NE) 16:27:47 435.675
NO-84 21 Jan 16:21:40 16:24:52 76° 315° (NW) 16:27:51 435.350 FM
DOVE 4 21 Jan 16:41:34 16:45:24 31° 262° (W) 16:49:08 437.250
LilacSat-2 21 Jan 16:47:53 16:51:27 37° 73° (ENE) 16:55:02 437.200
XW-2C 21 Jan 16:49:03 16:52:34 35° 73° (ENE) 16:56:04 145.795 - 145.815
ITUPSAT 1 21 Jan 16:56:57 16:59:42 15° 296° (WNW) 17:02:28 437.325
CUTE-I 21 Jan 16:57:19 17:02:17 42° 71° (ENE) 17:07:16 437.470
PCSat 21 Jan 17:02:25 17:03:13 10° 42° (NE) 17:04:00 145.827
KKS-1 21 Jan 17:04:08 17:08:26 46° 100° (E) 17:12:42 437.445
STARS 21 Jan 17:18:04 17:21:41 24° 96° (E) 17:25:16 437.465
KAITUO 1B 21 Jan 17:20:59 17:24:42 64° 76° (ENE) 17:28:26 145.475/437.950
XW-2F 21 Jan 17:24:12 17:28:00 84° 258° (WSW) 17:31:49 145.980 - 146.000
CUBESAT XI-V 21 Jan 17:25:16 17:27:49 15° 295° (WNW) 17:30:21 437.345
BEESAT 3 21 Jan 17:25:39 17:28:38 20° 50° (NE) 17:31:34 437.485
SEEDS 21 Jan 17:28:03 17:30:44 17° 68° (ENE) 17:33:25 437.485
NUDT-PHONESAT 21 Jan 17:30:17 17:34:00 80° 78° (ENE) 17:37:45 437.300
XW-2D 21 Jan 17:34:47 17:38:31 52° 260° (W) 17:42:16 145.860 - 145.880
CUTE 1.7 + AOD 2 21 Jan 17:40:53 17:44:52 40° 73° (ENE) 17:48:52 437.475
